User: anonymous   Login
Location: Unspecified
(0.0000°N, 0.0000°E)
Time: 15:36:19
(UTC+00:00)
Language:

SAR-Lupe-3 - Orbit

View from above orbital plane
View from above orbital plane
View from above satellite
View from above satellite

Ground track
Ground track

The orbit data is extracted from the following two-line orbital elements,

1 32283U 07053A   18252.88121453 0.00000500  00000-0  18571-4 0    07
2 32283  98.1471 118.5491 0003000  39.8656 320.1342 15.27586343    08
Epoch (UTC): 09 September 2018 21:08:56
Eccentricity: 0.0003000
inclination: 98.1471°
perigee height: 481 km
apogee height: 485 km
right ascension of ascending node: 118.5491°
argument of perigee: 39.8656°
revolutions per day: 15.27586343
mean anomaly at epoch: 320.1342°
orbit number at epoch: 0

The dashed part of the orbit path shows where the satellite is in the earth's shadow,  

DLR